* Astronomy

Members Login
Username 
 
Password 
    Remember Me  
Post Info TOPIC: Asteroid 2010 PM10


L

Posts: 131433
Date:
Asteroid 2010 PM10
Permalink  
 


Orbital elements:
2010 PM10 Earth MOID = 0.2130 AU
Epoch 2010 July 23.0 TT = JDT 2455400.5 MPC
M 337.58234 (2000.0) P Q
n 0.32247799 Peri. 60.81604 +0.97876759 -0.20410637
a 2.1060532 Node 310.95445 +0.17833674 +0.89326249
e 0.4247585 Incl. 1.42873 +0.10104457 +0.40052805
P 3.06 H 19.7 G 0.15 U 8

MPEC 2010 - P39


__________________
Page 1 of 1  sorted by
 
Quick Reply

Please log in to post quick replies.



Create your own FREE Forum
Report Abuse
Powered by ActiveBoard